FW7184 Weather Reports


Display with metric or nautical units.
time (UTC)temp
F
wind
direction
speed
MPH
gust
MPH
rain 1hr
in
rain 24hr
in
rain mn
in
humidity
%
barometer
mb
20260904225249 77 191 0.0 0.0 0.00 0.26 0.26 73 1011.3
20260904224749 77 193 0.0 0.0 0.00 0.26 0.26 73 1011.1
20260904224244 77 195 0.0 0.0 0.00 0.26 0.26 73 1011.3
20260904223743 78 193 0.0 0.0 0.00 0.26 0.26 73 1011.2
20260904223238 78 195 0.0 0.0 0.00 0.26 0.26 73 1011.3
20260904222734 78 202 0.0 0.0 0.00 0.26 0.26 71 1011.3
20260904222224 78 176 0.0 1.0 0.00 0.26 0.26 70 1011.1
20260904221723 78 192 1.0 2.0 0.00 0.26 0.26 69 1011.1
20260904221218 79 190 0.0 0.0 0.00 0.26 0.26 69 1011.1
20260904220719 79 196 1.0 1.0 0.00 0.26 0.26 69 1011.2
20260904220214 79 196 0.0 0.0 0.00 0.26 0.26 70 1011.1
20260904215714 80 182 0.0 0.0 0.00 0.26 0.26 68 1011.1
20260904215209 80 198 0.0 0.0 0.00 0.26 0.26 69 1010.8
20260904214704 80 190 0.0 0.0 0.00 0.26 0.26 68 1011.1
20260904214200 80 189 0.0 0.0 0.00 0.26 0.26 65 1011.0
20260904213658 81 190 0.0 0.0 0.00 0.26 0.26 64 1010.9
20260904213154 81 46 2.0 2.0 0.00 0.26 0.26 63 1011.0
20260904212644 81 224 2.0 3.0 0.00 0.26 0.26 63 1010.7
20260904212143 81 189 0.0 0.0 0.00 0.26 0.26 64 1010.9
20260904211638 81 106 1.0 1.0 0.00 0.26 0.26 62 1011.1
20260904211134 81 31 1.0 1.0 0.00 0.26 0.26 62 1011.1
20260904210633 82 56 1.0 1.0 0.00 0.26 0.26 60 1011.1
20260904210129 82 184 0.0 1.0 0.00 0.26 0.26 59 1011.2
20260904205625 82 171 0.0 0.0 0.00 0.26 0.26 59 1011.1
20260904205121 81 168 0.0 1.0 0.00 0.26 0.26 59 1010.9
20260904204616 81 186 1.0 1.0 0.00 0.26 0.26 60 1011.2
20260904204112 81 255 1.0 1.0 0.00 0.26 0.26 60 1011.2
20260904203608 81 188 0.0 0.0 0.00 0.26 0.26 62 1011.0
20260904203105 81 351 2.0 2.0 0.00 0.26 0.26 60 1011.2
20260904202600 82 240 0.0 1.0 0.00 0.26 0.26 60 1011.3
20260904202057 82 155 1.0 2.0 0.00 0.26 0.26 59 1011.6
20260904201556 82 278 1.0 2.0 0.00 0.26 0.26 59 1011.5
20260904201051 82 163 1.0 1.0 0.00 0.26 0.26 60 1011.3
20260904200549 82 189 0.0 0.0 0.00 0.26 0.26 58 1011.2
20260904200046 82 182 1.0 1.0 0.00 0.26 0.26 57 1011.6
20260904195544 82 114 2.0 3.0 0.00 0.26 0.26 58 1011.2
20260904195044 83 49 1.0 1.0 0.00 0.26 0.26 56 1011.3
20260904194538 83 137 2.0 3.0 0.00 0.26 0.26 55 1011.6
20260904194033 83 288 0.0 1.0 0.00 0.26 0.26 56 1011.3
20260904193528 83 213 0.0 1.0 0.00 0.26 0.26 57 1011.5
20260904193025 83 163 0.0 1.0 0.00 0.26 0.26 58 1011.6
20260904192523 83 14 3.0 6.0 0.00 0.26 0.26 57 1011.5
20260904192020 83 22 2.0 3.0 0.00 0.26 0.26 57 1011.5
20260904191516 83 206 0.0 0.0 0.00 0.26 0.26 61 1011.6
20260904191012 83 199 0.0 0.0 0.00 0.26 0.26 62 1011.9
20260904190507 83 193 2.0 2.0 0.00 0.26 0.26 62 1011.7
20260904190004 83 227 0.0 1.0 0.00 0.26 0.26 61 1012.1
20260904185500 82 204 0.0 1.0 0.00 0.26 0.26 64 1012.1
20260904184954 82 239 0.0 1.0 0.00 0.26 0.26 64 1011.9
20260904184448 82 50 2.0 2.0 0.00 0.26 0.26 63 1012.0
20260904183944 83 217 0.0 1.0 0.00 0.26 0.26 63 1011.9
20260904183439 82 56 1.0 1.0 0.00 0.26 0.26 63 1011.9
20260904182934 82 158 1.0 1.0 0.00 0.26 0.26 65 1012.2
20260904182430 83 163 0.0 2.0 0.00 0.26 0.26 63 1011.9
20260904181924 83 16 5.0 7.0 0.00 0.26 0.26 63 1012.2
20260904181419 82 9 1.0 2.0 0.00 0.26 0.26 66 1012.3
20260904180914 82 275 2.0 3.0 0.00 0.26 0.26 64 1012.3
20260904180409 82 219 0.0 1.0 0.00 0.26 0.26 65 1012.0
20260904175904 82 325 0.0 1.0 0.00 0.26 0.26 67 1012.0
20260904175403 82 213 0.0 0.0 0.00 0.26 0.26 68 1012.2
20260904174903 82 205 0.0 0.0 0.00 0.26 0.26 66 1011.9
20260904174358 83 337 0.0 1.0 0.00 0.26 0.26 67 1012.2
20260904173854 82 168 3.0 5.0 0.00 0.26 0.26 67 1012.1
20260904173354 81 77 2.0 3.0 0.00 0.26 0.26 70 1012.2
20260904172850 81 166 0.0 0.0 0.00 0.26 0.26 67 1012.0
20260904172349 82 203 0.0 0.0 0.00 0.26 0.26 67 1012.2
20260904171845 82 122 0.0 0.0 0.00 0.26 0.26 65 1011.9
20260904171340 81 211 2.0 3.0 0.00 0.26 0.26 65 1012.4
20260904170836 81 298 1.0 1.0 0.00 0.26 0.26 68 1012.2
20260904170331 81 260 0.0 0.0 0.00 0.26 0.26 69 1011.9
20260904165827 81 262 0.0 1.0 0.00 0.26 0.26 70 1012.2
20260904165325 80 30 1.0 1.0 0.00 0.26 0.26 72 1012.2
20260904164821 80 236 0.0 1.0 0.00 0.26 0.26 72 1012.4
20260904164315 79 210 0.0 1.0 0.00 0.26 0.26 75 1012.4
20260904163811 78 274 2.0 2.0 0.00 0.26 0.26 76 1012.4
20260904163306 78 26 2.0 2.0 0.00 0.26 0.26 78 1012.3
20260904162805 78 182 1.0 1.0 0.00 0.26 0.26 78 1012.0
20260904162300 78 183 0.0 0.0 0.00 0.26 0.26 76 1012.2
20260904161755 79 190 0.0 0.0 0.00 0.26 0.26 75 1012.4
20260904161250 80 344 4.0 7.0 0.00 0.26 0.26 72 1012.0
20260904160746 80 263 1.0 2.0 0.00 0.26 0.26 73 1012.2
20260904160241 80 200 1.0 1.0 0.00 0.26 0.26 72 1012.4
20260904155741 80 206 0.0 1.0 0.00 0.26 0.26 73 1012.3
20260904155241 80 211 2.0 3.0 0.00 0.26 0.26 73 1012.1
20260904154739 80 201 1.0 1.0 0.00 0.26 0.26 72 1012.0
20260904154234 80 185 1.0 2.0 0.00 0.26 0.26 73 1012.3
20260904153730 80 31 4.0 5.0 0.00 0.26 0.26 72 1012.7
20260904153225 79 242 1.0 1.0 0.00 0.26 0.26 75 1012.4
20260904152721 80 307 2.0 6.0 0.00 0.26 0.26 74 1012.5
20260904152216 79 203 2.0 3.0 0.00 0.26 0.26 74 1012.5
20260904151711 79 201 1.0 1.0 0.00 0.26 0.26 76 1012.4
20260904151210 79 150 1.0 1.0 0.00 0.26 0.26 74 1012.4
20260904150706 79 193 1.0 1.0 0.00 0.26 0.26 74 1012.6
20260904150201 79 239 1.0 2.0 0.00 0.26 0.26 75 1012.5
20260904145659 79 123 1.0 2.0 0.00 0.26 0.26 75 1012.5
20260904145154 80 209 1.0 1.0 0.00 0.26 0.26 77 1012.6
20260904144650 79 66 2.0 3.0 0.00 0.26 0.26 77 1012.6
20260904144146 79 56 1.0 1.0 0.00 0.26 0.26 79 1012.7
20260904143641 79 181 1.0 2.0 0.00 0.26 0.26 81 1012.6
20260904143138 80 159 1.0 2.0 0.00 0.26 0.26 80 1012.5
20260904142634 78 157 0.0 0.0 0.00 0.26 0.26 83 1012.6
20260904142130 77 215 1.0 1.0 0.00 0.26 0.26 84 1012.8
20260904141624 76 209 0.0 0.0 0.00 0.26 0.26 87 1012.6
20260904141120 76 245 1.0 1.0 0.00 0.26 0.26 88 1012.8
20260904140616 75 178 1.0 1.0 0.00 0.26 0.26 89 1012.5
20260904140109 75 171 0.0 1.0 0.00 0.26 0.26 91 1012.5
20260904135609 74 209 0.0 1.0 0.00 0.26 0.26 92 1012.6
20260904135105 74 151 1.0 1.0 0.00 0.26 0.26 92 1012.5
20260904134601 73 202 0.0 0.0 0.00 0.26 0.26 93 1012.4
20260904134100 73 295 0.0 1.0 0.00 0.26 0.26 94 1012.5
20260904133555 73 200 0.0 1.0 0.00 0.26 0.26 94 1012.6
20260904133051 73 355 3.0 3.0 0.00 0.26 0.26 94 1012.6
20260904132550 73 206 0.0 0.0 0.00 0.26 0.26 95 1012.7
20260904132046 73 349 2.0 2.0 0.00 0.26 0.26 95 1012.7
20260904131545 72 207 0.0 0.0 0.00 0.26 0.26 95 1012.6
20260904131041 72 10 3.0 6.0 0.00 0.26 0.26 96 1012.7
20260904130540 72 213 0.0 1.0 0.00 0.26 0.26 98 1012.5
20260904130035 72 201 0.0 0.0 0.00 0.26 0.26 99 1012.7
20260904125532 71 198 0.0 1.0 0.00 0.26 0.26 99 1012.7
20260904125026 71 205 0.0 0.0 0.00 0.26 0.26 99 1012.6
20260904124522 70 2 2.0 2.0 0.00 0.26 0.26 99 1012.4
20260904124017 70 98 1.0 1.0 0.00 0.26 0.26 99 1012.5
20260904123516 70 211 0.0 0.0 0.00 0.26 0.26 99 1012.6
20260904123013 70 221 0.0 0.0 0.00 0.26 0.26 99 1012.7
20260904122507 70 221 0.0 1.0 0.00 0.26 0.26 99 1012.5
20260904122001 70 328 0.0 1.0 0.00 0.26 0.26 99 1012.7
20260904121458 69 283 1.0 1.0 0.00 0.26 0.26 99 1012.5
20260904120954 70 34 1.0 2.0 0.00 0.26 0.26 99 1012.6
20260904120449 69 211 0.0 0.0 0.00 0.26 0.26 99 1012.7
20260904115944 69 340 1.0 2.0 0.00 0.26 0.26 99 1012.4
20260904115440 69 205 0.0 0.0 0.00 0.26 0.26 99 1012.6
20260904114939 69 204 0.0 0.0 0.00 0.26 0.26 99 1012.5
20260904114440 69 207 0.0 0.0 0.00 0.26 0.26 99 1012.6
20260904113935 69 207 0.0 0.0 0.00 0.26 0.26 99 1012.7
20260904113434 69 137 1.0 1.0 0.00 0.26 0.26 99 1012.6
20260904112934 69 197 0.0 0.0 0.00 0.26 0.26 99 1012.3
20260904112430 69 227 0.0 0.0 0.00 0.26 0.26 99 1012.4
20260904111925 69 209 0.0 0.0 0.00 0.26 0.26 99 1012.2
20260904111420 68 194 0.0 1.0 0.00 0.26 0.26 99 1012.2
20260904110916 68 193 0.0 1.0 0.00 0.26 0.26 99 1012.4
20260904110415 68 231 0.0 0.0 0.00 0.26 0.26 99 1012.3
20260904105910 68 186 0.0 1.0 0.00 0.26 0.26 99 1012.2
20260904105405 68 216 0.0 0.0 0.00 0.26 0.26 99 1012.3
20260904104901 68 321 0.0 0.0 0.00 0.26 0.26 99 1012.2
20260904104355 68 181 1.0 1.0 0.00 0.26 0.26 99 1012.2
20260904103853 68 174 1.0 1.0 0.00 0.26 0.26 99 1012.2
20260904103352 68 230 0.0 0.0 0.00 0.26 0.26 99 1012.0
20260904102848 68 113 1.0 1.0 0.00 0.26 0.26 99 1011.9
20260904102343 68 221 1.0 1.0 0.00 0.26 0.26 99 1011.9
20260904101839 68 260 0.0 1.0 0.00 0.26 0.26 99 1011.9
20260904101336 68 211 0.0 0.0 0.00 0.26 0.26 99 1011.9
20260904100831 68 218 0.0 0.0 0.00 0.26 0.26 99 1011.8
20260904100327 68 201 0.0 0.0 0.00 0.26 0.26 99 1011.8
20260904095821 68 217 0.0 0.0 0.00 0.26 0.26 99 1011.8
20260904095316 68 205 0.0 0.0 0.00 0.26 0.26 99 1011.5
20260904094811 68 206 0.0 0.0 0.00 0.26 0.26 99 1011.6
20260904094306 68 206 0.0 0.0 0.00 0.26 0.26 99 1011.3
20260904093802 69 206 0.0 0.0 0.00 0.26 0.26 99 1011.1
20260904093257 69 208 0.0 0.0 0.00 0.26 0.26 99 1011.1
20260904092752 69 197 0.0 1.0 0.00 0.26 0.26 99 1011.1
20260904092249 69 209 0.0 0.0 0.00 0.26 0.26 99 1011.1
20260904091745 69 204 0.0 0.0 0.00 0.26 0.26 99 1010.8
20260904091245 69 215 0.0 0.0 0.00 0.26 0.26 99 1011.2
20260904090740 70 206 0.0 0.0 0.00 0.26 0.26 99 1011.1
20260904090230 70 206 0.0 0.0 0.00 0.26 0.26 99 1011.5
20260904085731 70 206 0.0 0.0 0.00 0.26 0.26 99 1011.2
20260904085225 70 207 0.0 0.0 0.00 0.26 0.26 99 1011.1
20260904084720 70 206 0.0 0.0 0.00 0.26 0.26 99 1011.1
20260904084216 70 207 0.0 0.0 0.00 0.26 0.26 99 1011.3
20260904083712 70 208 0.0 0.0 0.00 0.26 0.26 99 1011.1
20260904083208 70 208 0.0 0.0 0.00 0.26 0.26 99 1011.0
20260904082703 70 209 0.0 0.0 0.00 0.26 0.26 99 1011.0
20260904082158 70 205 0.0 0.0 0.00 0.26 0.26 99 1011.0
20260904081654 70 205 0.0 0.0 0.00 0.26 0.26 99 1011.0
20260904081149 70 203 0.0 0.0 0.00 0.26 0.26 99 1010.7
20260904080644 70 214 0.0 0.0 0.00 0.26 0.26 99 1011.0
20260904080140 70 204 0.0 0.0 0.00 0.26 0.26 99 1010.6
20260904075637 70 191 0.0 1.0 0.00 0.26 0.26 99 1010.5
20260904075137 71 204 0.0 0.0 0.00 0.26 0.26 99 1010.8
20260904074631 71 221 0.0 0.0 0.00 0.26 0.26 99 1010.8
20260904074125 71 67 0.0 1.0 0.00 0.26 0.26 99 1010.9
20260904073620 72 246 0.0 1.0 0.00 0.26 0.26 99 1011.1
20260904073116 73 131 1.0 1.0 0.07 0.26 0.26 99 1011.6
20260904072612 73 171 1.0 2.0 0.07 0.26 0.26 99 1011.7
20260904072107 73 208 0.0 1.0 0.05 0.25 0.25 99 1011.5
20260904071602 73 187 0.0 0.0 0.07 0.24 0.24 99 1011.0
20260904071057 73 201 0.0 0.0 0.07 0.24 0.24 99 1011.1
20260904070556 73 208 0.0 0.0 0.05 0.23 0.23 99 1011.3
20260904070052 73 205 0.0 0.0 0.05 0.23 0.23 99 1011.0
20260904065546 73 203 0.0 0.0 0.00 0.22 0.22 99 1011.2
20260904065043 73 205 0.0 0.0 0.00 0.22 0.22 99 1011.1
20260904064539 73 205 0.0 0.0 0.00 0.22 0.22 99 1010.9
20260904064038 73 205 0.0 0.0 0.00 0.22 0.22 99 1011.5
20260904063530 73 207 0.0 0.0 0.00 0.22 0.22 99 1011.2
20260904063029 73 206 0.0 0.0 0.00 0.22 0.22 99 1011.5
20260904062526 73 205 0.0 0.0 0.00 0.22 0.22 99 1011.6
20260904062021 73 205 0.0 0.0 0.00 0.22 0.22 99 1011.8
20260904061517 73 210 0.0 0.0 0.00 0.22 0.22 99 1011.2
20260904061013 73 189 0.0 0.0 0.00 0.22 0.22 99 1011.2
20260904060509 73 197 0.0 0.0 0.00 0.22 0.22 99 1011.5
20260904060005 73 215 0.0 0.0 0.00 0.22 0.22 99 1011.7
20260904055500 73 207 0.0 0.0 0.00 0.22 0.22 99 1011.3
20260904054955 73 202 0.0 0.0 0.00 0.22 0.22 99 1011.5
20260904054450 73 207 0.0 0.0 0.00 0.22 0.22 99 1012.0
20260904053946 73 204 0.0 0.0 0.00 0.22 0.22 99 1011.9
20260904053446 73 201 0.0 0.0 0.00 0.22 0.22 99 1011.9
20260904052942 73 216 0.0 0.0 0.00 0.22 0.22 99 1012.1
20260904052438 73 207 0.0 0.0 0.00 0.22 0.22 99 1012.0
20260904051933 73 205 0.0 0.0 0.00 0.22 0.22 99 1011.9
20260904051430 73 204 0.0 0.0 0.00 0.22 0.22 99 1012.1
20260904050929 73 200 0.0 0.0 0.31 0.22 0.22 99 1012.0
20260904050426 73 202 0.0 0.0 0.61 0.22 0.22 99 1012.3
20260904045925 73 196 0.0 0.0 0.83 0.16 0.16 99 1012.3
20260904045421 73 199 0.0 0.0 0.47 0.08 0.08 99 1012.6
20260904044921 73 207 0.0 0.0 0.05 0.01 0.01 99 1012.7
20260904044417 73 209 0.0 0.0 0.00 0.00 0.00 99 1012.3
20260904043913 73 206 0.0 0.0 0.00 0.00 0.00 99 1012.3
20260904043409 73 206 0.0 0.0 0.00 0.00 0.00 99 1012.2
20260904042904 73 205 0.0 0.0 0.00 0.00 0.00 99 1012.1
20260904042401 73 205 0.0 0.0 0.00 0.00 0.00 99 1012.4
20260904041855 73 205 0.0 0.0 0.00 0.00 0.00 99 1012.5
20260904041351 73 203 0.0 0.0 0.00 0.00 0.00 99 1012.7
20260904040848 73 205 0.0 0.0 0.00 0.00 0.00 99 1012.6
20260904040342 73 205 0.0 0.0 0.00 0.00 0.00 99 1012.5
20260904035838 73 203 0.0 0.0 0.00 0.35 0.35 99 1012.4
20260904035334 73 205 0.0 0.0 0.00 0.35 0.35 99 1012.5
20260904034833 73 205 0.0 0.0 0.00 0.35 0.35 99 1012.7
20260904034328 73 203 0.0 0.0 0.00 0.35 0.35 99 1012.4
20260904033824 73 203 0.0 0.0 0.00 0.35 0.35 99 1012.4
20260904033321 73 204 0.0 0.0 0.00 0.35 0.35 99 1012.5
20260904032817 73 205 0.0 0.0 0.00 0.35 0.35 99 1012.2
20260904032316 73 204 0.0 0.0 0.00 0.35 0.35 99 1012.4
20260904031811 73 199 0.0 0.0 0.00 0.35 0.35 99 1012.6
20260904031306 73 199 0.0 0.0 0.00 0.35 0.35 99 1012.6
20260904030802 73 200 0.0 0.0 0.00 0.35 0.35 99 1012.5
20260904030257 73 199 0.0 0.0 0.00 0.35 0.35 99 1012.6
20260904025753 73 204 0.0 0.0 0.00 0.35 0.35 99 1013.0
20260904025248 73 214 0.0 0.0 0.00 0.35 0.35 99 1013.0
20260904024743 73 203 0.0 0.0 0.00 0.35 0.35 99 1012.9
20260904024239 73 201 0.0 0.0 0.00 0.35 0.35 99 1013.1
20260904023735 73 214 0.0 0.0 0.00 0.35 0.35 99 1013.1
20260904023231 73 205 0.0 0.0 0.00 0.35 0.35 99 1013.0
20260904022731 73 205 0.0 0.0 0.00 0.35 0.35 99 1013.1
20260904022228 73 204 0.0 0.0 0.00 0.35 0.35 99 1013.1
20260904021723 73 200 0.0 0.0 0.00 0.35 0.35 99 1013.2
20260904021218 73 202 0.0 0.0 0.00 0.35 0.35 99 1013.2
20260904020714 73 202 0.0 0.0 0.00 0.35 0.35 99 1013.5
20260904020213 73 205 0.0 0.0 0.00 0.35 0.35 99 1013.6
20260904015712 73 205 0.0 0.0 0.00 0.35 0.35 99 1013.5
20260904015207 73 201 0.0 0.0 0.00 0.35 0.35 99 1013.5
20260904014705 73 205 0.0 0.0 0.00 0.35 0.35 99 1013.7
20260904014200 73 200 0.0 0.0 0.00 0.35 0.35 99 1013.7
20260904013657 73 201 0.0 0.0 0.00 0.35 0.35 99 1013.3
20260904013153 73 201 0.0 0.0 0.00 0.35 0.35 99 1013.2
20260904012649 73 200 0.0 0.0 0.00 0.35 0.35 99 1013.5
20260904012147 73 195 0.0 0.0 0.00 0.35 0.35 99 1013.2
20260904011646 73 205 0.0 0.0 0.00 0.35 0.35 99 1013.3
20260904011143 73 205 0.0 0.0 0.00 0.35 0.35 99 1013.4
20260904010638 73 205 0.0 0.0 0.00 0.35 0.35 99 1013.5
20260904010134 73 205 0.0 0.0 0.00 0.35 0.35 99 1013.3
20260904005629 73 203 0.0 0.0 0.00 0.35 0.35 99 1013.2
20260904005125 74 200 0.0 0.0 0.00 0.35 0.35 99 1013.1
20260904004620 74 200 0.0 0.0 0.00 0.35 0.35 99 1013.3
20260904004120 74 200 0.0 0.0 0.00 0.35 0.35 99 1013.2
20260904003616 74 201 0.0 0.0 0.00 0.35 0.35 99 1013.3
20260904003112 74 201 0.0 0.0 0.00 0.35 0.35 99 1013.3
20260904002608 74 204 0.0 0.0 0.00 0.35 0.35 99 1013.3
20260904002102 74 204 0.0 0.0 0.00 0.35 0.35 99 1013.2
20260904001557 75 200 0.0 0.0 0.00 0.35 0.35 98 1012.9
20260904001056 75 202 0.0 0.0 0.00 0.35 0.35 98 1013.2
20260904000551 75 201 0.0 0.0 0.00 0.35 0.35 98 1013.0
20260904000048 75 200 0.0 0.0 0.00 0.35 0.35 97 1012.8
20260903235547 75 203 0.0 0.0 0.00 0.35 0.35 97 1012.9
20260903235043 76 201 0.0 0.0 0.00 0.35 0.35 97 1012.9
20260903234538 76 201 0.0 0.0 0.00 0.35 0.35 96 1012.8
20260903234034 76 200 0.0 0.0 0.00 0.35 0.35 95 1013.0
20260903233530 76 200 0.0 0.0 0.00 0.35 0.35 95 1013.0
20260903233025 77 200 0.0 0.0 0.00 0.35 0.35 94 1012.8
20260903232521 77 200 0.0 0.0 0.00 0.35 0.35 94 1012.7
20260903232021 77 200 0.0 0.0 0.00 0.35 0.35 94 1012.6
20260903231515 77 202 0.0 0.0 0.00 0.35 0.35 93 1012.8
20260903231009 78 200 0.0 0.0 0.00 0.35 0.35 93 1012.6
20260903230506 78 203 0.0 0.0 0.00 0.35 0.35 91 1012.9
20260903230003 78 203 0.0 0.0 0.00 0.35 0.35 90 1012.8